WEATHER DATA

YESTERDAY
Time Temp. Dewp. Hum. Wind dir Wind speed Wind gust Bar. 1h Prec. 24h Prec.
00:02 16.7 14.3 86 252 2.8 5.6 1007.6 0.0000 0.0000
00:11 16.6 14.3 86 250 2.5 5 1007.7 0.0000 0.0000
00:21 16.6 14.3 86 251 3.1 5 1007.6 0.0000 0.0000
00:32 16.6 14.3 86 252 2.8 5 1007.8 0.0000 0.0000
00:42 16.6 14.3 86 262 3.1 5 1007.6 0.0000 0.0000
00:52 16.5 14.2 86 253 3.1 5 1007.7 0.0000 0.0000
01:02 16.5 14.2 86 251 2.8 4.2 1007.6 0.0000 0.0000
01:12 16.5 14.3 87 252 2.8 4.7 1007.7 0.0000 0.0000
01:22 16.5 14.3 87 248 2.5 4.2 1007.8 0.0000 0.0000
01:32 16.5 14.3 87 255 3.1 4.2 1007.6 0.0000 0.0000
01:43 16.4 14.1 86 257 3.1 4.7 1007.6 0.0000 0.0000
01:52 16.4 14.2 87 241 2.5 3.9 1007.5 0.0000 0.0000
02:02 16.4 14.1 86 246 2.8 5 1007.5 0.0000 0.0000
02:13 16.2 13.7 85 251 2.8 4.7 1007.5 0.0000 0.0000
02:23 16.1 13.6 85 239 2.2 3.1 1007.4 0.1760 0.2000
02:33 16 13.5 85 234 2.2 3.9 1007.2 0.1760 0.2000
02:42 15.9 13.4 85 242 2.2 5.6 1007.3 0.1760 0.2000
02:53 15.8 13.5 86 234 2.2 4.4 1007.2 0.1760 0.2000
03:03 15.8 13.3 85 247 2.8 5.6 1007.2 0.1760 0.2000
03:13 15.7 13.2 85 252 3.1 6.4 1007.2 0.0000 0.2000
03:23 15.5 13 85 255 2.8 5 1007.1 0.0000 0.2000
03:33 15.5 13 85 259 2.8 5.8 1007.1 0.0000 0.2000
03:43 15.3 12.8 85 263 2.8 6.7 1007.1 0.0000 0.2000
03:53 15.3 12.8 85 270 3.6 6.4 1007 0.0000 0.2000
04:04 15.1 12.6 85 270 3.6 6.1 1006.8 0.0000 0.2000
04:14 14.9 12.4 85 257 3.1 5 1006.9 0.0000 0.2000
04:23 14.7 12.4 86 254 3.1 5.3 1006.8 0.0000 0.2000
04:34 14.6 12.3 86 239 3.1 5.3 1006.7 0.0000 0.2000
04:44 14.5 12.4 87 240 2.5 5.8 1006.6 0.0000 0.2000
04:54 14.4 12.3 87 240 3.1 5.3 1006.6 0.0000 0.2000
05:04 14.4 12.3 87 232 2.5 4.4 1006.6 0.0000 0.2000
05:14 14.4 12.4 88 241 2.5 4.2 1006.5 0.0000 0.2000
05:24 14.3 12.3 88 240 3.1 5.8 1006.5 0.0000 0.2000
05:34 14.3 12.3 88 247 2.8 5.3 1006.4 0.0000 0.2000
05:44 14.3 12.3 88 251 2.8 4.7 1006.3 0.0000 0.2000
05:55 14.3 12.2 87 251 3.1 5 1006.2 0.0000 0.2000
06:04 14.2 12.1 87 259 3.1 4.7 1006.2 0.0000 0.2000
06:14 14.2 12.1 87 260 3.3 5.8 1006.3 0.0000 0.2000
06:25 14.2 12.1 87 267 3.1 5.6 1006.2 0.0000 0.2000
06:35 14.2 12.2 88 261 3.1 5 1006.3 0.0000 0.2000
06:45 14.2 12.1 87 270 3.6 6.4 1006.2 0.0000 0.2000
06:55 14.3 12.3 88 270 3.3 5.6 1006.2 0.0000 0.2000
07:05 14.3 12.2 87 274 3.6 6.7 1006.2 0.0000 0.2000
07:15 14.5 12.4 87 273 3.6 6.9 1006.3 0.0000 0.2000
07:25 14.6 12.5 87 278 4.2 7.8 1006.4 0.0000 0.2000
07:36 14.7 12.6 87 270 3.6 8.1 1006.3 0.0000 0.2000
07:45 14.8 12.7 87 282 4.7 7.2 1006.4 0.0000 0.2000
07:55 14.9 12.6 86 278 4.2 7.2 1006.4 0.0000 0.2000
08:05 15.1 13 87 274 4.2 7.2 1006.3 0.0000 0.2000
08:16 15.2 12.9 86 274 5 8.3 1006.4 0.0000 0.2000
08:26 15.3 12.8 85 281 5 8.1 1006.2 0.0000 0.2000
08:35 15.3 12.8 85 275 4.4 8.9 1006.4 0.0000 0.2000
08:46 15.4 12.9 85 272 5.3 8.9 1006.3 0.0000 0.2000
08:56 15.5 13 85 257 4.7 9.4 1006.4 0.0000 0.2000
09:06 15.6 13.1 85 264 4.2 7.5 1006.4 0.0000 0.2000
09:14 15.6 13.1 85 265 4.4 9.7 1006.5 0.0000 0.2000
09:24 15.7 13 84 264 5 8.9 1006.3 0.0000 0.2000
09:34 15.8 13.1 84 267 4.4 7.5 1006.4 0.0000 0.2000
09:44 15.9 13.2 84 273 5 7.5 1006.4 0.0000 0.2000
09:54 16 13.3 84 263 4.4 6.4 1006.5 0.0000 0.2000
10:04 16.1 13.2 83 267 4.7 8.3 1006.5 0.0000 0.2000
10:14 16.2 13.3 83 267 4.4 6.9 1006.4 0.0000 0.2000
10:25 16.3 13.4 83 264 4.4 6.9 1006.5 0.0000 0.2000
10:34 16.5 13.6 83 264 3.3 5.6 1006.5 0.0000 0.2000
10:44 16.8 13.7 82 284 3.1 5.6 1006.4 0.0000 0.2000
10:55 17.3 13.6 79 292 2.2 4.7 1006.4 0.0000 0.2000
11:05 17.4 13.5 78 294 2.2 6.7 1006.4 0.0000 0.2000
11:15 17.6 13.5 77 286 2.2 5.3 1006.4 0.0000 0.2000
11:25 17.8 13.5 76 280 2.5 5.3 1006.3 0.0000 0.2000
11:35 17.8 13.3 75 300 2.5 5 1006.2 0.0000 0.2000
11:45 17.9 13.2 74 305 2.8 5 1006.2 0.0000 0.2000
11:55 18 13.5 75 306 1.9 5 1006.2 0.0000 0.2000
12:05 18.2 13.7 75 289 1.7 3.9 1006.3 0.0000 0.2000
12:16 18.6 13.9 74 257 2.5 4.4 1006.2 0.0000 0.2000
12:25 18.6 13.5 72 292 2.5 5.6 1006.1 0.0000 0.2000
12:35 18.5 13.4 72 284 2.2 5.6 1006.1 0.0000 0.2000
12:46 18.6 13.5 72 277 1.7 3.9 1006 0.0000 0.2000
12:56 18.6 13.2 71 297 2.2 4.4 1006 0.0000 0.2000
13:06 18.5 13.1 71 285 1.7 3.3 1006 0.0000 0.2000
13:16 18.3 13.2 72 294 3.1 6.1 1006 0.0000 0.2000
13:26 17.5 13 75 285 4.4 7.2 1006 0.0000 0.2000
13:36 16.9 12.8 77 280 3.6 6.1 1005.9 0.0000 0.2000
13:46 16.8 13.1 79 285 3.1 5 1006 0.0000 0.2000
13:57 17 13.1 78 292 3.1 5.6 1005.9 0.0000 0.2000
14:06 17.2 12.9 76 297 3.1 4.7 1005.9 0.0000 0.2000
14:16 17.5 12.6 73 302 3.1 5.3 1006 0.0000 0.2000
14:26 17.6 12.9 74 305 3.1 6.1 1005.9 0.0000 0.2000
14:37 17.4 12.9 75 311 3.3 5.6 1006.1 0.0000 0.2000
14:47 17 13.1 78 313 4.4 7.8 1006.3 0.0000 0.2000
14:56 16.3 12.8 80 300 4.7 8.9 1006.3 0.0000 0.2000
15:07 15.7 12.5 81 273 3.3 5 1006.3 0.1760 0.4000
15:17 15.5 12.6 83 264 3.1 5 1006.3 0.1760 0.4000
15:27 15.6 13.1 85 258 3.1 5 1006.4 0.3520 0.5000
15:37 15.9 13.6 86 257 3.3 5.3 1006.2 0.3520 0.5000
15:47 16.2 13.9 86 280 2.5 5 1006 0.3520 0.5000
15:57 16.6 13.7 83 274 2.2 5.3 1006 0.1760 0.5000
16:07 16.8 13.5 81 270 1.9 5 1006.1 0.1760 0.5000
16:18 16.9 13.4 80 282 2.8 5.6 1005.9 0.1760 0.5000
16:28 17.1 13.2 78 290 2.5 5.6 1006 0.0000 0.5000
16:37 17.2 13.1 77 288 2.8 6.7 1006 0.0000 0.5000
16:47 17.2 12.9 76 284 2.5 5 1006.1 0.0000 0.5000
16:58 17.2 12.7 75 287 3.1 6.1 1006 0.0000 0.5000
17:08 17.2 12.7 75 286 2.5 4.7 1006.1 0.0000 0.5000
17:18 17.1 12.4 74 283 3.3 6.1 1006.1 0.0000 0.5000
17:28 17 12.5 75 270 2.8 4.7 1006 0.0000 0.5000
17:38 16.9 12.6 76 266 2.8 5.3 1006.1 0.0000 0.5000
17:48 16.8 12.6 76 270 3.1 4.7 1006 0.0000 0.5000
17:58 16.7 12.3 75 270 3.9 7.5 1006.2 0.0000 0.5000
18:09 16.5 12.3 76 262 3.3 6.7 1006.2 0.0000 0.5000
18:19 16.3 12.3 77 258 3.1 5 1006.3 0.0000 0.5000
18:28 16.1 12.1 77 256 3.3 5.6 1006.3 0.0000 0.5000
18:39 16 12.2 78 267 3.3 5.8 1006.3 0.0000 0.5000
18:49 15.8 12 78 265 2.8 4.2 1006.5 0.0000 0.5000
18:59 15.8 12 78 249 3.9 6.4 1006.4 0.0000 0.5000
19:09 15.7 12.1 79 249 2.8 5.3 1006.5 0.0000 0.5000
19:19 15.6 11.8 78 263 4.2 7.8 1006.5 0.0000 0.5000
19:29 15.5 11.3 76 260 3.3 5.6 1006.5 0.0000 0.5000
19:39 15.5 11.3 76 257 3.3 6.4 1006.5 0.0000 0.5000
19:49 15.4 11.4 77 261 3.6 6.7 1006.5 0.0000 0.5000
20:00 15.4 11.4 77 263 3.3 6.9 1006.6 0.0000 0.5000
20:09 15.3 11.3 77 260 3.3 5.6 1006.6 0.0000 0.5000
20:19 15.3 11.3 77 262 3.1 6.1 1006.7 0.0000 0.5000
20:30 15.2 11.2 77 262 3.3 5.6 1006.7 0.0000 0.5000
20:40 15.2 11.2 77 270 3.1 5 1006.7 0.0000 0.5000
20:50 15.1 11.1 77 270 3.3 6.4 1006.7 0.0000 0.5000
20:59 15.1 11.1 77 277 4.4 7.5 1006.7 0.0000 0.5000
21:10 15.1 11.1 77 273 3.9 6.4 1006.9 0.0000 0.5000
21:20 15 11 77 275 4.2 7.2 1006.9 0.0000 0.5000
21:30 14.9 11.1 78 289 4.4 7.8 1007.2 0.0000 0.5000
21:40 14.8 11.2 79 286 4.2 7.5 1007.2 0.0000 0.5000
21:51 14.6 11 79 278 3.9 6.4 1007.1 0.0000 0.5000
22:00 14.6 11 79 270 3.6 5.6 1007.2 0.0000 0.5000
22:10 14.5 11.1 80 276 3.9 6.1 1007.2 0.0000 0.5000
22:21 14.4 11 80 273 3.6 6.4 1007.1 0.0000 0.5000
22:31 14.4 11 80 257 2.8 4.4 1007.1 0.0000 0.5000
22:41 14.3 11.1 81 260 3.1 4.7 1007.1 0.0000 0.5000
22:51 14.3 11.1 81 261 3.3 5.8 1007.1 0.0000 0.5000
23:01 14.3 11.1 81 244 3.1 5.6 1007.2 0.0000 0.5000
23:11 14.2 11.2 82 249 3.1 5.3 1007.3 0.0000 0.5000
23:21 14.2 11.4 83 243 2.8 5.3 1007.2 0.0000 0.5000
23:32 14.2 11.4 83 240 2.5 4.4 1007.3 0.0000 0.5000
23:41 14.2 11.4 83 246 2.8 4.4 1007.2 0.0000 0.5000
23:51 14.1 11.3 83 251 3.1 5.3 1007.2 0.0000 0.5000

DAY STATISTIC

2021-09-17
TEMPERATURE
AVERAGE
15.9
HIGH
18.6
12:16
LOW
14.1
23:51
PRESSURE
AVERAGE
1006.6
HIGH
1007.8
00:32
LOW
1005.9
13:36
DEWPOINT
AVERAGE
12.7
HIGH
14.3
00:02
LOW
11.0
21:20
HUMIDITY
AVERAGE
81
HIGH
88
05:14
LOW
71
12:56
WIND SPEED
AVERAGE
3.2
HIGH
5.3
08:46
WIND GUST
AVERAGE
5.8
HIGH
9.7
09:14
WIND DIRECTION
PREVAILING
W
79%
N
0.0
NE
0.0
E
0.0
SE
0.0
S
0.0
SW
12.6
W
79.0
NW
8.4
PRECIPITATION
RAIN HOUR
0.4
RAIN DAY
0.5
TEMPERATURE (°C)
LOW
14.1
HIGH
18.6
AVERAGE
15.9
PRESSURE (hpa)
LOW
1005.9
HIGH
1007.8
AVERAGE
1006.6
DEVICE